• En España
  • Lista de países
  • Para 7 días
  • Temperatura del agua
  • Mapa Satelital
  • El tiempo en el mapa
  • Informadores
  • user-avatar
    Iniciar sesión

    Tiempo cada hora Kolodino

    Hoy, 27 Mayo, Domingo

    Tiempo Temperatura Precipitaciones Viento Presión Humedad
    00:00 +12°C° 0 mm 2 mps 752 mmHg 75%
    01:00 +10°C° 0 mm 2 mps 752 mmHg 77%
    02:00 +10°C° 0 mm 3 mps 752 mmHg 78%
    03:00 +11°C° 0 mm 3 mps 752 mmHg 78%
    04:00 +11°C° 0 mm 3 mps 752 mmHg 78%
    05:00 +12°C° 0 mm 3 mps 752 mmHg 77%
    06:00 +14°C° 0 mm 3 mps 751 mmHg 72%
    07:00 +17°C° 0 mm 4 mps 751 mmHg 66%
    08:00 +19°C° 0 mm 4 mps 751 mmHg 60%
    09:00 +20°C° 0 mm 4 mps 750 mmHg 56%
    10:00 +21°C° 0 mm 4 mps 750 mmHg 53%
    11:00 +23°C° 0 mm 4 mps 750 mmHg 49%
    12:00 +23°C° 0 mm 4 mps 749 mmHg 48%
    13:00 +25°C° 0 mm 4 mps 749 mmHg 47%
    14:00 +25°C° 0 mm 4 mps 748 mmHg 47%
    15:00 +23°C° 0 mm 4 mps 748 mmHg 51%
    16:00 +24°C° 0 mm 3 mps 748 mmHg 56%
    17:00 +22°C° 0 mm 3 mps 748 mmHg 61%
    18:00 +20°C° 0,1 mm 3 mps 748 mmHg 62%
    19:00 +18°C° 0,1 mm 3 mps 748 mmHg 63%
    20:00 +17°C° 0,1 mm 3 mps 749 mmHg 64%
    21:00 +14°C° 0 mm 3 mps 749 mmHg 62%
    22:00 +12°C° 0 mm 3 mps 750 mmHg 60%
    23:00 +11°C° 0 mm 3 mps 750 mmHg 58%

    Mañana, 28 Mayo, Lunes

    Tiempo Temperatura Precipitaciones Viento Presión Humedad
    00:00 +10°C° 0 mm 3 mps 751 mmHg 57%
    01:00 +9°C° 0 mm 3 mps 751 mmHg 56%
    02:00 +8°C° 0 mm 2 mps 752 mmHg 55%
    03:00 +8°C° 0 mm 2 mps 753 mmHg 55%
    04:00 +8°C° 0 mm 2 mps 753 mmHg 54%
    05:00 +8°C° 0 mm 2 mps 753 mmHg 54%
    06:00 +10°C° 0 mm 3 mps 754 mmHg 49%
    07:00 +11°C° 0 mm 3 mps 754 mmHg 44%
    08:00 +13°C° 0 mm 3 mps 755 mmHg 39%
    09:00 +14°C° 0 mm 3 mps 755 mmHg 36%
    10:00 +16°C° 0 mm 3 mps 755 mmHg 34%
    11:00 +17°C° 0 mm 3 mps 755 mmHg 31%
    12:00 +18°C° 0 mm 3 mps 755 mmHg 31%
    13:00 +19°C° 0 mm 2 mps 755 mmHg 31%
    14:00 +19°C° 0 mm 2 mps 754 mmHg 31%
    15:00 +19°C° 0 mm 2 mps 754 mmHg 33%
    16:00 +19°C° 0 mm 2 mps 754 mmHg 35%
    17:00 +19°C° 0 mm 2 mps 754 mmHg 38%
    18:00 +16°C° 0 mm 1 mps 754 mmHg 45%
    19:00 +14°C° 0 mm 1 mps 754 mmHg 52%
    20:00 +12°C° 0 mm 1 mps 754 mmHg 59%
    21:00 +11°C° 0 mm 1 mps 754 mmHg 60%
    22:00 +11°C° 0 mm 1 mps 754 mmHg 61%
    23:00 +10°C° 0 mm 1 mps 754 mmHg 62%

    Pasado mañana, 29 Mayo, Martes

    Tiempo Temperatura Precipitaciones Viento Presión Humedad
    00:00 +9°C° 0 mm 1 mps 754 mmHg 63%
    01:00 +9°C° 0 mm 1 mps 754 mmHg 65%
    02:00 +9°C° 0 mm 1 mps 754 mmHg 66%
    03:00 +9°C° 0 mm 1 mps 754 mmHg 67%
    04:00 +10°C° 0 mm 1 mps 754 mmHg 67%
    05:00 +9°C° 0 mm 2 mps 754 mmHg 68%
    06:00 +13°C° 0 mm 2 mps 754 mmHg 61%
    07:00 +15°C° 0 mm 2 mps 754 mmHg 54%
    08:00 +17°C° 0 mm 2 mps 753 mmHg 47%
    09:00 +18°C° 0 mm 2 mps 753 mmHg 43%
    10:00 +20°C° 0 mm 2 mps 752 mmHg 40%
    11:00 +21°C° 0 mm 2 mps 752 mmHg 36%
    12:00 +22°C° 0 mm 3 mps 751 mmHg 35%
    13:00 +22°C° 0 mm 3 mps 750 mmHg 35%
    14:00 +24°C° 0 mm 3 mps 750 mmHg 35%
    15:00 +24°C° 0 mm 3 mps 749 mmHg 37%
    16:00 +24°C° 0 mm 3 mps 748 mmHg 39%
    17:00 +24°C° 0 mm 3 mps 748 mmHg 42%
    18:00 +21°C° 0 mm 3 mps 747 mmHg 51%
    19:00 +19°C° 0 mm 2 mps 747 mmHg 60%
    20:00 +16°C° 0 mm 2 mps 746 mmHg 69%
    21:00 +16°C° 0 mm 2 mps 746 mmHg 73%
    22:00 +15°C° 0 mm 2 mps 745 mmHg 77%
    23:00 +13°C° 0 mm 3 mps 745 mmHg 80%

    30 Mayo, Miércoles

    Tiempo Temperatura Precipitaciones Viento Presión Humedad
    00:00 +13°C° 0 mm 3 mps 745 mmHg 82%
    01:00 +13°C° 0 mm 3 mps 744 mmHg 83%
    02:00 +13°C° 0 mm 3 mps 744 mmHg 84%
    03:00 +13°C° 0 mm 3 mps 744 mmHg 83%
    04:00 +14°C° 0 mm 3 mps 743 mmHg 81%
    05:00 +15°C° 0 mm 4 mps 743 mmHg 80%
    06:00 +18°C° 0 mm 4 mps 742 mmHg 73%
    07:00 +20°C° 0 mm 5 mps 742 mmHg 67%
    08:00 +22°C° 0 mm 6 mps 741 mmHg 61%
    09:00 +23°C° 0 mm 6 mps 741 mmHg 56%
    10:00 +24°C° 0 mm 6 mps 740 mmHg 51%
    11:00 +26°C° 0 mm 7 mps 740 mmHg 46%
    12:00 +26°C° 0 mm 7 mps 739 mmHg 44%
    13:00 +27°C° 0 mm 7 mps 738 mmHg 43%
    14:00 +27°C° 0 mm 7 mps 738 mmHg 42%
    15:00 +24°C° 0 mm 6 mps 737 mmHg 47%
    16:00 +23°C° 0 mm 5 mps 737 mmHg 53%
    17:00 +21°C° 0 mm 4 mps 737 mmHg 59%
    18:00 +19°C° 0,1 mm 4 mps 737 mmHg 57%
    19:00 +18°C° 0,1 mm 4 mps 738 mmHg 55%
    20:00 +15°C° 0,1 mm 4 mps 738 mmHg 54%
    21:00 +13°C° 0 mm 4 mps 738 mmHg 54%
    22:00 +11°C° 0 mm 3 mps 739 mmHg 55%
    23:00 +9°C° 0 mm 3 mps 739 mmHg 56%

    31 Mayo, Jueves

    Tiempo Temperatura Precipitaciones Viento Presión Humedad
    00:00 +8°C° 0 mm 3 mps 740 mmHg 60%
    01:00 +8°C° 0 mm 3 mps 740 mmHg 64%
    02:00 +7°C° 0 mm 3 mps 741 mmHg 68%
    03:00 +7°C° 0 mm 3 mps 741 mmHg 68%
    04:00 +5°C° 0 mm 3 mps 741 mmHg 68%
    05:00 +5°C° 0 mm 3 mps 741 mmHg 69%
    06:00 +7°C° 0 mm 3 mps 742 mmHg 63%
    07:00 +8°C° 0 mm 3 mps 742 mmHg 57%
    08:00 +9°C° 0 mm 3 mps 742 mmHg 52%
    09:00 +10°C° 0 mm 4 mps 742 mmHg 46%
    10:00 +11°C° 0 mm 4 mps 742 mmHg 40%
    11:00 +13°C° 0 mm 4 mps 742 mmHg 35%
    12:00 +13°C° 0 mm 4 mps 742 mmHg 33%
    13:00 +14°C° 0 mm 4 mps 742 mmHg 31%
    14:00 +14°C° 0 mm 4 mps 742 mmHg 29%
    15:00 +14°C° 0 mm 4 mps 742 mmHg 31%
    16:00 +14°C° 0 mm 4 mps 742 mmHg 32%
    17:00 +13°C° 0 mm 4 mps 742 mmHg 34%
    18:00 +12°C° 0 mm 3 mps 742 mmHg 41%
    19:00 +10°C° 0 mm 2 mps 742 mmHg 49%
    20:00 +8°C° 0 mm 2 mps 743 mmHg 56%
    21:00 +7°C° 0 mm 2 mps 743 mmHg 57%
    22:00 +7°C° 0 mm 2 mps 743 mmHg 58%
    23:00 +5°C° 0 mm 3 mps 743 mmHg 59%

    1 Junio, Viernes

    Tiempo Temperatura Precipitaciones Viento Presión Humedad
    00:00 +4°C° 0 mm 3 mps 744 mmHg 61%
    01:00 +3°C° 0 mm 3 mps 744 mmHg 63%
    02:00 +3°C° 0 mm 3 mps 744 mmHg 65%
    03:00 +3°C° 0 mm 3 mps 744 mmHg 65%
    04:00 +3°C° 0 mm 3 mps 744 mmHg 64%
    05:00 +3°C° 0 mm 3 mps 744 mmHg 64%
    06:00 +4°C° 0 mm 4 mps 744 mmHg 58%
    07:00 +6°C° 0 mm 4 mps 745 mmHg 53%
    08:00 +7°C° 0 mm 4 mps 745 mmHg 47%
    09:00 +8°C° 0 mm 4 mps 745 mmHg 45%
    10:00 +8°C° 0 mm 4 mps 745 mmHg 42%
    11:00 +10°C° 0 mm 4 mps 745 mmHg 40%
    12:00 +11°C° 0 mm 4 mps 745 mmHg 39%
    13:00 +11°C° 0 mm 4 mps 745 mmHg 38%
    14:00 +12°C° 0 mm 4 mps 745 mmHg 37%
    15:00 +11°C° 0 mm 4 mps 745 mmHg 37%
    16:00 +11°C° 0 mm 4 mps 745 mmHg 37%
    17:00 +11°C° 0 mm 3 mps 745 mmHg 38%
    18:00 +10°C° 0 mm 3 mps 745 mmHg 44%
    19:00 +8°C° 0 mm 2 mps 745 mmHg 50%
    20:00 +8°C° 0 mm 1 mps 745 mmHg 56%
    21:00 +7°C° 0 mm 1 mps 745 mmHg 58%
    22:00 +5°C° 0 mm 2 mps 745 mmHg 61%
    23:00 +3°C° 0 mm 2 mps 745 mmHg 63%
    Mostrar más